owner,sensor,date,latitude,longitude,air_temperature,qcFlag 
LUMCON,ioos:station:LUMCON:103:1,2011-09-02T00:00:00Z,30.1889,-90.1683,27.3,11111222 
LUMCON,ioos:station:LUMCON:103:1,2011-09-02T01:00:00Z,30.1889,-90.1683,27.0,11111222 
LUMCON,ioos:station:LUMCON:103:1,2011-09-02T02:00:00Z,30.1889,-90.1683,27.4,11111222 
LUMCON,ioos:station:LUMCON:103:1,2011-09-02T03:00:00Z,30.1889,-90.1683,27.7,11111222 
LUMCON,ioos:station:LUMCON:103:1,2011-09-02T04:00:00Z,30.1889,-90.1683,27.8,11111222 
LUMCON,ioos:station:LUMCON:103:1,2011-09-02T06:00:00Z,30.1889,-90.1683,27.4,11111222 
LUMCON,ioos:station:LUMCON:103:1,2011-09-02T07:00:00Z,30.1889,-90.1683,27.5,11111222 
LUMCON,ioos:station:LUMCON:103:1,2011-09-02T08:00:00Z,30.1889,-90.1683,27.5,11111222 
LUMCON,ioos:station:LUMCON:103:1,2011-09-02T14:00:00Z,30.1889,-90.1683,25.6,11111222 
LUMCON,ioos:station:LUMCON:103:1,2011-09-02T16:00:00Z,30.1889,-90.1683,23.5,11111222 
LUMCON,ioos:station:LUMCON:103:1,2011-09-02T18:00:00Z,30.1889,-90.1683,24.8,11111222 
LUMCON,ioos:station:LUMCON:103:1,2011-09-02T20:00:00Z,30.1889,-90.1683,22.5,11111222 
LUMCON,ioos:station:LUMCON:103:1,2011-09-02T22:00:00Z,30.1889,-90.1683,23.2,11111222 
LUMCON,ioos:station:LUMCON:103:1,2011-09-02T23:00:00Z,30.1889,-90.1683,22.9,11111222 
LUMCON,ioos:station:LUMCON:103:1,2011-09-03T00:00:00Z,30.1889,-90.1683,22.7,11111222 
LUMCON,ioos:station:LUMCON:103:1,2011-09-03T01:00:00Z,30.1889,-90.1683,22.7,11111222 
LUMCON,ioos:station:LUMCON:103:1,2011-09-03T02:00:00Z,30.1889,-90.1683,22.6,11111222 
LUMCON,ioos:station:LUMCON:103:1,2011-09-03T03:00:00Z,30.1889,-90.1683,22.4,11111222 
LUMCON,ioos:station:LUMCON:103:1,2011-09-03T04:00:00Z,30.1889,-90.1683,18.2,11111222 
LUMCON,ioos:station:LUMCON:103:1,2011-09-03T15:00:00Z,30.1889,-90.1683,6.0,11111222 
LUMCON,ioos:station:LUMCON:103:1,2011-09-05T15:00:00Z,30.1889,-90.1683,22.2,11111222 
LUMCON,ioos:station:LUMCON:103:1,2011-09-05T16:00:00Z,30.1889,-90.1683,23.5,11111222 
LUMCON,ioos:station:LUMCON:103:1,2011-09-05T17:00:00Z,30.1889,-90.1683,22.8,11111222 
LUMCON,ioos:station:LUMCON:103:1,2011-09-05T18:00:00Z,30.1889,-90.1683,23.2,11111222 
LUMCON,ioos:station:LUMCON:103:1,2011-09-05T19:00:00Z,30.1889,-90.1683,23.6,11111222 
LUMCON,ioos:station:LUMCON:103:1,2011-09-05T20:00:00Z,30.1889,-90.1683,24.3,11111222 
LUMCON,ioos:station:LUMCON:103:1,2011-09-05T21:00:00Z,30.1889,-90.1683,24.5,11111222 
LUMCON,ioos:station:LUMCON:103:1,2011-09-05T22:00:00Z,30.1889,-90.1683,24.2,11111222 
LUMCON,ioos:station:LUMCON:103:1,2011-09-05T23:00:00Z,30.1889,-90.1683,23.6,11111222 
LUMCON,ioos:station:LUMCON:103:1,2011-09-06T00:00:00Z,30.1889,-90.1683,22.7,11111222 
LUMCON,ioos:station:LUMCON:103:1,2011-09-06T14:00:00Z,30.1889,-90.1683,18.8,11111222 
LUMCON,ioos:station:LUMCON:103:1,2011-09-06T15:00:00Z,30.1889,-90.1683,19.5,11111222 
LUMCON,ioos:station:LUMCON:103:1,2011-09-06T16:00:00Z,30.1889,-90.1683,20.6,11111222 
LUMCON,ioos:station:LUMCON:103:1,2011-09-06T17:00:00Z,30.1889,-90.1683,21.4,11111222 
LUMCON,ioos:station:LUMCON:103:1,2011-09-06T18:00:00Z,30.1889,-90.1683,22.2,11111222 
LUMCON,ioos:station:LUMCON:103:1,2011-09-06T19:00:00Z,30.1889,-90.1683,23.2,11111222 
LUMCON,ioos:station:LUMCON:103:1,2011-09-06T20:00:00Z,30.1889,-90.1683,24.0,11111222 
LUMCON,ioos:station:LUMCON:103:1,2011-09-06T21:00:00Z,30.1889,-90.1683,24.6,11111222 
LUMCON,ioos:station:LUMCON:103:1,2011-09-06T22:00:00Z,30.1889,-90.1683,25.0,11111222 
LUMCON,ioos:station:LUMCON:103:1,2011-09-06T23:00:00Z,30.1889,-90.1683,25.1,11111222 
LUMCON,ioos:station:LUMCON:103:1,2011-09-07T00:00:00Z,30.1889,-90.1683,24.6,11111222 
LUMCON,ioos:station:LUMCON:103:1,2011-09-07T01:00:00Z,30.1889,-90.1683,23.4,11111222 
LUMCON,ioos:station:LUMCON:103:1,2011-09-07T02:00:00Z,30.1889,-90.1683,22.8,11111222 
LUMCON,ioos:station:LUMCON:103:1,2011-09-07T03:00:00Z,30.1889,-90.1683,22.1,11111222 
LUMCON,ioos:station:LUMCON:103:1,2011-09-07T04:00:00Z,30.1889,-90.1683,21.5,11111222 
LUMCON,ioos:station:LUMCON:103:1,2011-09-07T05:00:00Z,30.1889,-90.1683,21.4,11111222 
LUMCON,ioos:station:LUMCON:103:1,2011-09-07T07:00:00Z,30.1889,-90.1683,20.3,11111222 
LUMCON,ioos:station:LUMCON:103:1,2011-09-07T08:00:00Z,30.1889,-90.1683,20.0,11111222 
LUMCON,ioos:station:LUMCON:103:1,2011-09-07T09:00:00Z,30.1889,-90.1683,19.6,11111222 
LUMCON,ioos:station:LUMCON:103:1,2011-09-07T10:00:00Z,30.1889,-90.1683,19.2,11111222 
LUMCON,ioos:station:LUMCON:103:1,2011-09-07T11:00:00Z,30.1889,-90.1683,19.1,11111222 
LUMCON,ioos:station:LUMCON:103:1,2011-09-07T12:00:00Z,30.1889,-90.1683,18.8,11111222 
LUMCON,ioos:station:LUMCON:103:1,2011-09-07T13:00:00Z,30.1889,-90.1683,19.3,11111222 
LUMCON,ioos:station:LUMCON:103:1,2011-09-07T14:00:00Z,30.1889,-90.1683,20.3,11111222 
LUMCON,ioos:station:LUMCON:103:1,2011-09-07T15:00:00Z,30.1889,-90.1683,21.3,11111222 
LUMCON,ioos:station:LUMCON:103:1,2011-09-07T16:00:00Z,30.1889,-90.1683,22.6,11111222 
LUMCON,ioos:station:LUMCON:103:1,2011-09-07T17:00:00Z,30.1889,-90.1683,23.2,11111222 
LUMCON,ioos:station:LUMCON:103:1,2011-09-07T18:00:00Z,30.1889,-90.1683,23.7,11111222 
LUMCON,ioos:station:LUMCON:103:1,2011-09-07T19:00:00Z,30.1889,-90.1683,24.3,11111222 
LUMCON,ioos:station:LUMCON:103:1,2011-09-07T20:00:00Z,30.1889,-90.1683,25.1,11111222 
LUMCON,ioos:station:LUMCON:103:1,2011-09-07T22:00:00Z,30.1889,-90.1683,26.0,11111222 
LUMCON,ioos:station:LUMCON:103:1,2011-09-07T23:00:00Z,30.1889,-90.1683,26.1,11111222 
LUMCON,ioos:station:LUMCON:103:1,2011-09-08T00:00:00Z,30.1889,-90.1683,25.4,11111222 
LUMCON,ioos:station:LUMCON:103:1,2011-09-08T01:00:00Z,30.1889,-90.1683,24.4,11111222 
LUMCON,ioos:station:LUMCON:103:1,2011-09-08T02:00:00Z,30.1889,-90.1683,23.8,11111222 
LUMCON,ioos:station:LUMCON:103:1,2011-09-08T03:00:00Z,30.1889,-90.1683,22.8,11111222 
LUMCON,ioos:station:LUMCON:103:1,2011-09-08T04:00:00Z,30.1889,-90.1683,22.5,11111222 
LUMCON,ioos:station:LUMCON:103:1,2011-09-08T05:00:00Z,30.1889,-90.1683,22.1,11111222 
LUMCON,ioos:station:LUMCON:103:1,2011-09-08T06:00:00Z,30.1889,-90.1683,21.0,11111222 
LUMCON,ioos:station:LUMCON:103:1,2011-09-08T07:00:00Z,30.1889,-90.1683,20.9,11111222 
LUMCON,ioos:station:LUMCON:103:1,2011-09-08T08:00:00Z,30.1889,-90.1683,20.4,11111222 
LUMCON,ioos:station:LUMCON:103:1,2011-09-08T09:00:00Z,30.1889,-90.1683,19.9,11111222 
LUMCON,ioos:station:LUMCON:103:1,2011-09-08T10:00:00Z,30.1889,-90.1683,19.4,11111222 
LUMCON,ioos:station:LUMCON:103:1,2011-09-08T11:00:00Z,30.1889,-90.1683,19.4,11111222 
LUMCON,ioos:station:LUMCON:103:1,2011-09-08T12:00:00Z,30.1889,-90.1683,19.2,11111222 
LUMCON,ioos:station:LUMCON:103:1,2011-09-08T13:00:00Z,30.1889,-90.1683,19.3,11111222 
LUMCON,ioos:station:LUMCON:103:1,2011-09-08T14:00:00Z,30.1889,-90.1683,20.7,11111222 
LUMCON,ioos:station:LUMCON:103:1,2011-09-08T15:00:00Z,30.1889,-90.1683,21.7,11111222 
LUMCON,ioos:station:LUMCON:103:1,2011-09-08T16:00:00Z,30.1889,-90.1683,22.8,11111222 
LUMCON,ioos:station:LUMCON:103:1,2011-09-08T17:00:00Z,30.1889,-90.1683,24.0,11111222 
LUMCON,ioos:station:LUMCON:103:1,2011-09-08T18:00:00Z,30.1889,-90.1683,24.3,11111222 
LUMCON,ioos:station:LUMCON:103:1,2011-09-08T19:00:00Z,30.1889,-90.1683,24.7,11111222 
LUMCON,ioos:station:LUMCON:103:1,2011-09-08T23:00:00Z,30.1889,-90.1683,25.8,11111222 
LUMCON,ioos:station:LUMCON:103:1,2011-09-09T00:00:00Z,30.1889,-90.1683,25.2,11111222 
LUMCON,ioos:station:LUMCON:103:1,2011-09-09T01:00:00Z,30.1889,-90.1683,24.6,11111222 
LUMCON,ioos:station:LUMCON:103:1,2011-09-09T02:00:00Z,30.1889,-90.1683,24.4,11111222 
LUMCON,ioos:station:LUMCON:103:1,2011-09-09T03:00:00Z,30.1889,-90.1683,23.9,11111222 
LUMCON,ioos:station:LUMCON:103:1,2011-09-09T04:00:00Z,30.1889,-90.1683,23.0,11111222 
LUMCON,ioos:station:LUMCON:103:1,2011-09-09T05:00:00Z,30.1889,-90.1683,22.6,11111222 
LUMCON,ioos:station:LUMCON:103:1,2011-09-09T06:00:00Z,30.1889,-90.1683,22.3,11111222 
LUMCON,ioos:station:LUMCON:103:1,2011-09-09T07:00:00Z,30.1889,-90.1683,21.8,11111222 
LUMCON,ioos:station:LUMCON:103:1,2011-09-09T08:00:00Z,30.1889,-90.1683,21.7,11111222 
LUMCON,ioos:station:LUMCON:103:1,2011-09-09T09:00:00Z,30.1889,-90.1683,21.4,11111222 
LUMCON,ioos:station:LUMCON:103:1,2011-09-09T10:00:00Z,30.1889,-90.1683,20.7,11111222 
LUMCON,ioos:station:LUMCON:103:1,2011-09-09T11:00:00Z,30.1889,-90.1683,20.2,11111222 
LUMCON,ioos:station:LUMCON:103:1,2011-09-09T12:00:00Z,30.1889,-90.1683,19.5,11111222 
LUMCON,ioos:station:LUMCON:103:1,2011-09-09T13:00:00Z,30.1889,-90.1683,20.3,11111222 
LUMCON,ioos:station:LUMCON:103:1,2011-09-09T14:00:00Z,30.1889,-90.1683,21.5,11111222 
LUMCON,ioos:station:LUMCON:103:1,2011-09-09T15:00:00Z,30.1889,-90.1683,23.2,11111222 
LUMCON,ioos:station:LUMCON:103:1,2011-09-09T17:00:00Z,30.1889,-90.1683,25.2,11111222 
LUMCON,ioos:station:LUMCON:103:1,2011-09-09T18:00:00Z,30.1889,-90.1683,25.5,11111222 
LUMCON,ioos:station:LUMCON:103:1,2011-09-09T20:00:00Z,30.1889,-90.1683,26.2,11111222 
LUMCON,ioos:station:LUMCON:103:1,2011-09-09T22:00:00Z,30.1889,-90.1683,26.8,11111222 
LUMCON,ioos:station:LUMCON:103:1,2011-09-10T00:00:00Z,30.1889,-90.1683,26.2,11111222 
LUMCON,ioos:station:LUMCON:103:1,2011-09-10T02:00:00Z,30.1889,-90.1683,25.2,11111222 
LUMCON,ioos:station:LUMCON:103:1,2011-09-10T07:00:00Z,30.1889,-90.1683,24.1,11111222 
LUMCON,ioos:station:LUMCON:103:1,2011-09-10T09:00:00Z,30.1889,-90.1683,24.0,11111222 
LUMCON,ioos:station:LUMCON:103:1,2011-09-10T10:00:00Z,30.1889,-90.1683,22.9,11111222 
LUMCON,ioos:station:LUMCON:103:1,2011-09-10T11:00:00Z,30.1889,-90.1683,22.6,11111222 
LUMCON,ioos:station:LUMCON:103:1,2011-09-10T12:00:00Z,30.1889,-90.1683,22.4,11111222 
LUMCON,ioos:station:LUMCON:103:1,2011-09-10T13:00:00Z,30.1889,-90.1683,23.1,11111222 
LUMCON,ioos:station:LUMCON:103:1,2011-09-10T14:00:00Z,30.1889,-90.1683,23.9,11111222 
LUMCON,ioos:station:LUMCON:103:1,2011-09-10T15:00:00Z,30.1889,-90.1683,25.2,11111222 
LUMCON,ioos:station:LUMCON:103:1,2011-09-10T16:00:00Z,30.1889,-90.1683,26.3,11111222 
LUMCON,ioos:station:LUMCON:103:1,2011-09-10T17:00:00Z,30.1889,-90.1683,26.4,11111222 
LUMCON,ioos:station:LUMCON:103:1,2011-09-12T14:00:00Z,30.1889,-90.1683,24.8,11111222 
LUMCON,ioos:station:LUMCON:103:1,2011-09-12T15:00:00Z,30.1889,-90.1683,26.5,11111222 
LUMCON,ioos:station:LUMCON:103:1,2011-09-12T17:00:00Z,30.1889,-90.1683,27.6,11111222 
LUMCON,ioos:station:LUMCON:103:1,2011-09-12T18:00:00Z,30.1889,-90.1683,27.5,11111222 
LUMCON,ioos:station:LUMCON:103:1,2011-09-12T19:00:00Z,30.1889,-90.1683,27.9,11111222 
LUMCON,ioos:station:LUMCON:103:1,2011-09-12T20:00:00Z,30.1889,-90.1683,28.6,11111222 
LUMCON,ioos:station:LUMCON:103:1,2011-09-12T21:00:00Z,30.1889,-90.1683,28.9,11111222 
LUMCON,ioos:station:LUMCON:103:1,2011-09-12T22:00:00Z,30.1889,-90.1683,29.4,11111222 
LUMCON,ioos:station:LUMCON:103:1,2011-09-12T23:00:00Z,30.1889,-90.1683,29.3,11111222 
LUMCON,ioos:station:LUMCON:103:1,2011-09-13T16:00:00Z,30.1889,-90.1683,27.6,11111222 
LUMCON,ioos:station:LUMCON:103:1,2011-09-13T17:00:00Z,30.1889,-90.1683,28.0,11111222 
LUMCON,ioos:station:LUMCON:103:1,2011-09-13T18:00:00Z,30.1889,-90.1683,28.1,11111222 
LUMCON,ioos:station:LUMCON:103:1,2011-09-13T19:00:00Z,30.1889,-90.1683,28.4,11111222 
LUMCON,ioos:station:LUMCON:103:1,2011-09-13T20:00:00Z,30.1889,-90.1683,28.6,11111222 
LUMCON,ioos:station:LUMCON:103:1,2011-09-13T21:00:00Z,30.1889,-90.1683,29.0,11111222 
LUMCON,ioos:station:LUMCON:103:1,2011-09-13T22:00:00Z,30.1889,-90.1683,29.0,11111222 
LUMCON,ioos:station:LUMCON:103:1,2011-09-14T01:00:00Z,30.1889,-90.1683,27.8,11111222 
LUMCON,ioos:station:LUMCON:103:1,2011-09-14T02:00:00Z,30.1889,-90.1683,27.7,11111222 
LUMCON,ioos:station:LUMCON:103:1,2011-09-14T03:00:00Z,30.1889,-90.1683,27.3,11111222 
LUMCON,ioos:station:LUMCON:103:1,2011-09-14T04:00:00Z,30.1889,-90.1683,26.4,11111222 
LUMCON,ioos:station:LUMCON:103:1,2011-09-14T05:00:00Z,30.1889,-90.1683,26.3,11111222 
LUMCON,ioos:station:LUMCON:103:1,2011-09-14T06:00:00Z,30.1889,-90.1683,26.1,11111222 
LUMCON,ioos:station:LUMCON:103:1,2011-09-14T07:00:00Z,30.1889,-90.1683,26.3,11111222 
LUMCON,ioos:station:LUMCON:103:1,2011-09-14T08:00:00Z,30.1889,-90.1683,26.0,11111222 
LUMCON,ioos:station:LUMCON:103:1,2011-09-14T10:00:00Z,30.1889,-90.1683,25.2,11111222 
LUMCON,ioos:station:LUMCON:103:1,2011-09-14T12:00:00Z,30.1889,-90.1683,25.0,11111222 
LUMCON,ioos:station:LUMCON:103:1,2011-09-14T14:00:00Z,30.1889,-90.1683,26.7,11111222 
LUMCON,ioos:station:LUMCON:103:1,2011-09-14T18:00:00Z,30.1889,-90.1683,28.6,11111222 
LUMCON,ioos:station:LUMCON:103:1,2011-09-14T19:00:00Z,30.1889,-90.1683,28.8,11111222 
LUMCON,ioos:station:LUMCON:103:1,2011-09-14T20:00:00Z,30.1889,-90.1683,29.2,11111222 
LUMCON,ioos:station:LUMCON:103:1,2011-09-14T21:00:00Z,30.1889,-90.1683,29.2,11111222 
LUMCON,ioos:station:LUMCON:103:1,2011-09-14T22:00:00Z,30.1889,-90.1683,29.0,11111222 
LUMCON,ioos:station:LUMCON:103:1,2011-09-15T00:00:00Z,30.1889,-90.1683,28.2,11111222 
LUMCON,ioos:station:LUMCON:103:1,2011-09-15T01:00:00Z,30.1889,-90.1683,27.8,11111222 
LUMCON,ioos:station:LUMCON:103:1,2011-09-15T02:00:00Z,30.1889,-90.1683,27.5,11111222 
LUMCON,ioos:station:LUMCON:103:1,2011-09-15T03:00:00Z,30.1889,-90.1683,27.4,11111222 
LUMCON,ioos:station:LUMCON:103:1,2011-09-15T04:00:00Z,30.1889,-90.1683,26.7,11111222 
LUMCON,ioos:station:LUMCON:103:1,2011-09-15T05:00:00Z,30.1889,-90.1683,26.5,11111222 
LUMCON,ioos:station:LUMCON:103:1,2011-09-15T06:00:00Z,30.1889,-90.1683,26.3,11111222 
LUMCON,ioos:station:LUMCON:103:1,2011-09-15T07:00:00Z,30.1889,-90.1683,26.0,11111222 
LUMCON,ioos:station:LUMCON:103:1,2011-09-15T08:00:00Z,30.1889,-90.1683,25.8,11111222 
LUMCON,ioos:station:LUMCON:103:1,2011-09-15T09:00:00Z,30.1889,-90.1683,25.5,11111222 
LUMCON,ioos:station:LUMCON:103:1,2011-09-15T10:00:00Z,30.1889,-90.1683,25.2,11111222 
LUMCON,ioos:station:LUMCON:103:1,2011-09-15T11:00:00Z,30.1889,-90.1683,25.1,11111222 
LUMCON,ioos:station:LUMCON:103:1,2011-09-15T12:00:00Z,30.1889,-90.1683,24.8,11111222 
LUMCON,ioos:station:LUMCON:103:1,2011-09-15T13:00:00Z,30.1889,-90.1683,25.1,11111222 
LUMCON,ioos:station:LUMCON:103:1,2011-09-15T14:00:00Z,30.1889,-90.1683,25.5,11111222 
LUMCON,ioos:station:LUMCON:103:1,2011-09-15T15:00:00Z,30.1889,-90.1683,26.4,11111222 
LUMCON,ioos:station:LUMCON:103:1,2011-09-15T16:00:00Z,30.1889,-90.1683,27.5,11111222 
LUMCON,ioos:station:LUMCON:103:1,2011-09-15T17:00:00Z,30.1889,-90.1683,28.4,11111222 
LUMCON,ioos:station:LUMCON:103:1,2011-09-15T18:00:00Z,30.1889,-90.1683,28.9,11111222 
LUMCON,ioos:station:LUMCON:103:1,2011-09-15T19:00:00Z,30.1889,-90.1683,28.9,11111222 
LUMCON,ioos:station:LUMCON:103:1,2011-09-15T20:00:00Z,30.1889,-90.1683,28.6,11111222 
LUMCON,ioos:station:LUMCON:103:1,2011-09-15T21:00:00Z,30.1889,-90.1683,28.8,11111222 
LUMCON,ioos:station:LUMCON:103:1,2011-09-15T22:00:00Z,30.1889,-90.1683,28.5,11111222 
LUMCON,ioos:station:LUMCON:103:1,2011-09-15T23:00:00Z,30.1889,-90.1683,27.9,11111222 
LUMCON,ioos:station:LUMCON:103:1,2011-09-16T00:00:00Z,30.1889,-90.1683,25.7,11111222 
LUMCON,ioos:station:LUMCON:103:1,2011-09-16T01:00:00Z,30.1889,-90.1683,24.0,11111222 
LUMCON,ioos:station:LUMCON:103:1,2011-09-16T02:00:00Z,30.1889,-90.1683,22.5,11111222 
LUMCON,ioos:station:LUMCON:103:1,2011-09-16T03:00:00Z,30.1889,-90.1683,21.9,11111222 
LUMCON,ioos:station:LUMCON:103:1,2011-09-16T04:00:00Z,30.1889,-90.1683,21.4,11111222 
LUMCON,ioos:station:LUMCON:103:1,2011-09-16T05:00:00Z,30.1889,-90.1683,21.1,11111222 
LUMCON,ioos:station:LUMCON:103:1,2011-09-16T06:00:00Z,30.1889,-90.1683,20.9,11111222 
LUMCON,ioos:station:LUMCON:103:1,2011-09-16T07:00:00Z,30.1889,-90.1683,20.7,11111222 
LUMCON,ioos:station:LUMCON:103:1,2011-09-16T08:00:00Z,30.1889,-90.1683,20.8,11111222 
LUMCON,ioos:station:LUMCON:103:1,2011-09-16T09:00:00Z,30.1889,-90.1683,20.3,11111222 
LUMCON,ioos:station:LUMCON:103:1,2011-09-16T10:00:00Z,30.1889,-90.1683,19.5,11111222 
LUMCON,ioos:station:LUMCON:103:1,2011-09-16T11:00:00Z,30.1889,-90.1683,19.6,11111222 
LUMCON,ioos:station:LUMCON:103:1,2011-09-16T12:00:00Z,30.1889,-90.1683,19.5,11111222 
LUMCON,ioos:station:LUMCON:103:1,2011-09-16T13:00:00Z,30.1889,-90.1683,19.5,11111222 
LUMCON,ioos:station:LUMCON:103:1,2011-09-16T15:00:00Z,30.1889,-90.1683,20.6,11111222 
LUMCON,ioos:station:LUMCON:103:1,2011-09-16T16:00:00Z,30.1889,-90.1683,21.3,11111222 
LUMCON,ioos:station:LUMCON:103:1,2011-09-24T10:00:00Z,30.1889,-90.1683,23.6,11111222 
LUMCON,ioos:station:LUMCON:103:1,2011-09-24T11:00:00Z,30.1889,-90.1683,23.3,11111222 
LUMCON,ioos:station:LUMCON:103:1,2011-09-24T12:00:00Z,30.1889,-90.1683,22.8,11111222 
LUMCON,ioos:station:LUMCON:103:1,2011-09-24T13:00:00Z,30.1889,-90.1683,23.0,11111222 
LUMCON,ioos:station:LUMCON:103:1,2011-09-24T14:00:00Z,30.1889,-90.1683,23.9,11111222 
LUMCON,ioos:station:LUMCON:103:1,2011-09-24T15:00:00Z,30.1889,-90.1683,24.9,11111222 
LUMCON,ioos:station:LUMCON:103:1,2011-09-24T16:00:00Z,30.1889,-90.1683,25.9,11111222 
LUMCON,ioos:station:LUMCON:103:1,2011-09-24T17:00:00Z,30.1889,-90.1683,26.0,11111222 
LUMCON,ioos:station:LUMCON:103:1,2011-09-24T18:00:00Z,30.1889,-90.1683,25.7,11111222 
LUMCON,ioos:station:LUMCON:103:1,2011-09-24T19:00:00Z,30.1889,-90.1683,26.6,11111222 
LUMCON,ioos:station:LUMCON:103:1,2011-09-24T20:00:00Z,30.1889,-90.1683,27.4,11111222 
LUMCON,ioos:station:LUMCON:103:1,2011-09-24T21:00:00Z,30.1889,-90.1683,27.7,11111222 
LUMCON,ioos:station:LUMCON:103:1,2011-09-24T22:00:00Z,30.1889,-90.1683,28.3,11111222 
LUMCON,ioos:station:LUMCON:103:1,2011-09-24T23:00:00Z,30.1889,-90.1683,28.2,11111222 
LUMCON,ioos:station:LUMCON:103:1,2011-09-25T00:00:00Z,30.1889,-90.1683,27.3,11111222 
LUMCON,ioos:station:LUMCON:103:1,2011-09-25T01:00:00Z,30.1889,-90.1683,26.6,11111222 
LUMCON,ioos:station:LUMCON:103:1,2011-09-25T02:00:00Z,30.1889,-90.1683,25.9,11111222 
LUMCON,ioos:station:LUMCON:103:1,2011-09-25T03:00:00Z,30.1889,-90.1683,25.9,11111222 
LUMCON,ioos:station:LUMCON:103:1,2011-09-25T04:00:00Z,30.1889,-90.1683,26.0,11111222 
LUMCON,ioos:station:LUMCON:103:1,2011-09-25T05:00:00Z,30.1889,-90.1683,26.2,11111222 
LUMCON,ioos:station:LUMCON:103:1,2011-09-25T06:00:00Z,30.1889,-90.1683,25.1,11111222 
LUMCON,ioos:station:LUMCON:103:1,2011-09-25T07:00:00Z,30.1889,-90.1683,25.3,11111222 
LUMCON,ioos:station:LUMCON:103:1,2011-09-25T08:00:00Z,30.1889,-90.1683,24.6,11111222 
LUMCON,ioos:station:LUMCON:103:1,2011-09-25T09:00:00Z,30.1889,-90.1683,25.3,11111222 
LUMCON,ioos:station:LUMCON:103:1,2011-09-25T10:00:00Z,30.1889,-90.1683,25.0,11111222 
LUMCON,ioos:station:LUMCON:103:1,2011-09-25T11:00:00Z,30.1889,-90.1683,24.5,11111222 
LUMCON,ioos:station:LUMCON:103:1,2011-09-25T12:00:00Z,30.1889,-90.1683,24.4,11111222 
LUMCON,ioos:station:LUMCON:103:1,2011-09-25T13:00:00Z,30.1889,-90.1683,26.2,11111222 
LUMCON,ioos:station:LUMCON:103:1,2011-09-25T14:00:00Z,30.1889,-90.1683,27.0,11111222 
LUMCON,ioos:station:LUMCON:103:1,2011-09-25T15:00:00Z,30.1889,-90.1683,27.3,11111222 
LUMCON,ioos:station:LUMCON:103:1,2011-09-25T16:00:00Z,30.1889,-90.1683,27.7,11111222 
LUMCON,ioos:station:LUMCON:103:1,2011-09-25T17:00:00Z,30.1889,-90.1683,28.0,11111222 
LUMCON,ioos:station:LUMCON:103:1,2011-09-25T18:00:00Z,30.1889,-90.1683,28.1,11111222 
LUMCON,ioos:station:LUMCON:103:1,2011-09-25T19:00:00Z,30.1889,-90.1683,28.3,11111222 
LUMCON,ioos:station:LUMCON:103:1,2011-09-25T20:00:00Z,30.1889,-90.1683,28.5,11111222 
LUMCON,ioos:station:LUMCON:103:1,2011-09-25T21:00:00Z,30.1889,-90.1683,28.9,11111222 
LUMCON,ioos:station:LUMCON:103:1,2011-09-25T22:00:00Z,30.1889,-90.1683,28.7,11111222 
LUMCON,ioos:station:LUMCON:103:1,2011-09-25T23:00:00Z,30.1889,-90.1683,28.8,11111222 
LUMCON,ioos:station:LUMCON:103:1,2011-09-26T00:00:00Z,30.1889,-90.1683,28.0,11111222 
LUMCON,ioos:station:LUMCON:103:1,2011-09-26T01:00:00Z,30.1889,-90.1683,27.7,11111222 
LUMCON,ioos:station:LUMCON:103:1,2011-09-26T02:00:00Z,30.1889,-90.1683,27.4,11111222 
LUMCON,ioos:station:LUMCON:103:1,2011-09-26T03:00:00Z,30.1889,-90.1683,27.2,11111222 
LUMCON,ioos:station:LUMCON:103:1,2011-09-26T04:00:00Z,30.1889,-90.1683,27.1,11111222 
LUMCON,ioos:station:LUMCON:103:1,2011-09-26T05:00:00Z,30.1889,-90.1683,27.1,11111222 
LUMCON,ioos:station:LUMCON:103:1,2011-09-26T06:00:00Z,30.1889,-90.1683,26.9,11111222 
LUMCON,ioos:station:LUMCON:103:1,2011-09-26T07:00:00Z,30.1889,-90.1683,26.9,11111222 
LUMCON,ioos:station:LUMCON:103:1,2011-09-26T08:00:00Z,30.1889,-90.1683,26.8,11111222 
LUMCON,ioos:station:LUMCON:103:1,2011-09-26T09:00:00Z,30.1889,-90.1683,26.8,11111222 
LUMCON,ioos:station:LUMCON:103:1,2011-09-26T10:00:00Z,30.1889,-90.1683,26.8,11111222 
LUMCON,ioos:station:LUMCON:103:1,2011-09-26T11:00:00Z,30.1889,-90.1683,26.8,11111222 
LUMCON,ioos:station:LUMCON:103:1,2011-09-26T12:00:00Z,30.1889,-90.1683,26.7,11111222 
LUMCON,ioos:station:LUMCON:103:1,2011-09-26T13:00:00Z,30.1889,-90.1683,27.1,11111222 
LUMCON,ioos:station:LUMCON:103:1,2011-09-26T14:00:00Z,30.1889,-90.1683,27.4,11111222 
LUMCON,ioos:station:LUMCON:103:1,2011-09-26T15:00:00Z,30.1889,-90.1683,27.6,11111222 
LUMCON,ioos:station:LUMCON:103:1,2011-09-26T16:00:00Z,30.1889,-90.1683,28.2,11111222 
LUMCON,ioos:station:LUMCON:103:1,2011-09-26T17:00:00Z,30.1889,-90.1683,28.6,11111222 
LUMCON,ioos:station:LUMCON:103:1,2011-09-26T18:00:00Z,30.1889,-90.1683,28.9,11111222 
LUMCON,ioos:station:LUMCON:103:1,2011-09-26T19:00:00Z,30.1889,-90.1683,29.4,11111222 
LUMCON,ioos:station:LUMCON:103:1,2011-09-26T20:00:00Z,30.1889,-90.1683,29.7,11111222 
LUMCON,ioos:station:LUMCON:103:1,2011-09-26T21:00:00Z,30.1889,-90.1683,29.9,11111222 
LUMCON,ioos:station:LUMCON:103:1,2011-09-26T22:00:00Z,30.1889,-90.1683,29.8,11111222 
LUMCON,ioos:station:LUMCON:103:1,2011-09-26T23:00:00Z,30.1889,-90.1683,29.7,11111222 
LUMCON,ioos:station:LUMCON:103:1,2011-09-27T00:00:00Z,30.1889,-90.1683,28.3,11111222 
LUMCON,ioos:station:LUMCON:103:1,2011-09-27T01:00:00Z,30.1889,-90.1683,27.8,11111222 
LUMCON,ioos:station:LUMCON:103:1,2011-09-27T02:00:00Z,30.1889,-90.1683,27.7,11111222 
LUMCON,ioos:station:LUMCON:103:1,2011-09-27T03:00:00Z,30.1889,-90.1683,27.2,11111222 
LUMCON,ioos:station:LUMCON:103:1,2011-09-27T04:00:00Z,30.1889,-90.1683,26.8,11111222 
LUMCON,ioos:station:LUMCON:103:1,2011-09-27T05:00:00Z,30.1889,-90.1683,26.7,11111222 
LUMCON,ioos:station:LUMCON:103:1,2011-09-27T06:00:00Z,30.1889,-90.1683,26.4,11111222 
LUMCON,ioos:station:LUMCON:103:1,2011-09-27T07:00:00Z,30.1889,-90.1683,26.2,11111222 
LUMCON,ioos:station:LUMCON:103:1,2011-09-27T08:00:00Z,30.1889,-90.1683,26.0,11111222 
LUMCON,ioos:station:LUMCON:103:1,2011-09-27T09:00:00Z,30.1889,-90.1683,26.1,11111222 
LUMCON,ioos:station:LUMCON:103:1,2011-09-27T10:00:00Z,30.1889,-90.1683,26.0,11111222 
LUMCON,ioos:station:LUMCON:103:1,2011-09-27T11:00:00Z,30.1889,-90.1683,25.6,11111222 
LUMCON,ioos:station:LUMCON:103:1,2011-09-27T12:00:00Z,30.1889,-90.1683,25.6,11111222 
LUMCON,ioos:station:LUMCON:103:1,2011-09-27T13:00:00Z,30.1889,-90.1683,26.3,11111222 
LUMCON,ioos:station:LUMCON:103:1,2011-09-27T14:00:00Z,30.1889,-90.1683,27.0,11111222 
LUMCON,ioos:station:LUMCON:103:1,2011-09-27T16:00:00Z,30.1889,-90.1683,27.5,11111222 
LUMCON,ioos:station:LUMCON:103:1,2011-09-27T17:00:00Z,30.1889,-90.1683,27.9,11111222 
LUMCON,ioos:station:LUMCON:103:1,2011-09-27T18:00:00Z,30.1889,-90.1683,28.2,11111222 
LUMCON,ioos:station:LUMCON:103:1,2011-09-27T19:00:00Z,30.1889,-90.1683,28.6,11111222 
LUMCON,ioos:station:LUMCON:103:1,2011-09-27T20:00:00Z,30.1889,-90.1683,28.8,11111222 
LUMCON,ioos:station:LUMCON:103:1,2011-09-27T22:00:00Z,30.1889,-90.1683,29.1,11111222 
LUMCON,ioos:station:LUMCON:103:1,2011-09-27T23:00:00Z,30.1889,-90.1683,29.1,11111222 
LUMCON,ioos:station:LUMCON:103:1,2011-09-28T00:00:00Z,30.1889,-90.1683,28.5,11111222 
LUMCON,ioos:station:LUMCON:103:1,2011-09-28T01:00:00Z,30.1889,-90.1683,28.3,11111222 
LUMCON,ioos:station:LUMCON:103:1,2011-09-28T02:00:00Z,30.1889,-90.1683,28.3,11111222 
LUMCON,ioos:station:LUMCON:103:1,2011-09-28T03:00:00Z,30.1889,-90.1683,27.7,11111222 
LUMCON,ioos:station:LUMCON:103:1,2011-09-28T04:00:00Z,30.1889,-90.1683,27.4,11111222 
LUMCON,ioos:station:LUMCON:103:1,2011-09-28T05:00:00Z,30.1889,-90.1683,27.2,11111222 
LUMCON,ioos:station:LUMCON:103:1,2011-09-28T06:00:00Z,30.1889,-90.1683,27.1,11111222 